Year,Month,Day,Hour,Minute,Value (Times are PST for insolation in W/m^2)
2019,06,09,00,00,0.00
2019,06,09,00,01,0.00
2019,06,09,00,02,0.00
2019,06,09,00,03,0.00
2019,06,09,00,04,0.00
2019,06,09,00,05,0.00
2019,06,09,00,06,0.00
2019,06,09,00,07,0.00
2019,06,09,00,08,0.00
2019,06,09,00,09,0.00
2019,06,09,00,10,0.00
2019,06,09,00,11,0.00
2019,06,09,00,12,0.00
2019,06,09,00,13,0.00
2019,06,09,00,14,0.00
2019,06,09,00,15,0.00
2019,06,09,00,16,0.00
2019,06,09,00,17,0.00
2019,06,09,00,18,0.00
2019,06,09,00,19,0.00
2019,06,09,00,20,0.00
2019,06,09,00,21,0.00
2019,06,09,00,22,0.00
2019,06,09,00,23,0.00
2019,06,09,00,24,0.00
2019,06,09,00,25,0.00
2019,06,09,00,26,0.00
2019,06,09,00,27,0.00
2019,06,09,00,28,0.00
2019,06,09,00,29,0.00
2019,06,09,00,30,0.00
2019,06,09,00,31,0.00
2019,06,09,00,32,0.00
2019,06,09,00,33,0.00
2019,06,09,00,34,0.00
2019,06,09,00,35,0.00
2019,06,09,00,36,0.00
2019,06,09,00,37,0.00
2019,06,09,00,38,0.00
2019,06,09,00,39,0.00
2019,06,09,00,40,0.00
2019,06,09,00,41,0.00
2019,06,09,00,42,0.00
2019,06,09,00,43,0.00
2019,06,09,00,44,0.00
2019,06,09,00,45,0.00
2019,06,09,00,46,0.00
2019,06,09,00,47,0.00
2019,06,09,00,48,0.00
2019,06,09,00,49,0.00
2019,06,09,00,50,0.00
2019,06,09,00,51,0.00
2019,06,09,00,52,0.00
2019,06,09,00,53,0.00
2019,06,09,00,54,0.00
2019,06,09,00,55,0.00
2019,06,09,00,56,0.00
2019,06,09,00,57,0.00
2019,06,09,00,58,0.00
2019,06,09,00,59,0.00
2019,06,09,01,00,0.00
2019,06,09,01,01,0.00
2019,06,09,01,02,0.00
2019,06,09,01,03,0.00
2019,06,09,01,04,0.00
2019,06,09,01,05,0.00
2019,06,09,01,06,0.00
2019,06,09,01,07,0.00
2019,06,09,01,08,0.00
2019,06,09,01,09,0.00
2019,06,09,01,10,0.00
2019,06,09,01,11,0.00
2019,06,09,01,12,0.00
2019,06,09,01,13,0.00
2019,06,09,01,14,0.00
2019,06,09,01,15,0.00
2019,06,09,01,16,0.00
2019,06,09,01,17,0.00
2019,06,09,01,18,0.00
2019,06,09,01,19,0.00
2019,06,09,01,20,0.00
2019,06,09,01,21,0.00
2019,06,09,01,22,0.00
2019,06,09,01,23,0.00
2019,06,09,01,24,0.00
2019,06,09,01,25,0.00
2019,06,09,01,26,0.00
2019,06,09,01,27,0.00
2019,06,09,01,28,0.00
2019,06,09,01,29,0.00
2019,06,09,01,30,0.00
2019,06,09,01,31,0.00
2019,06,09,01,32,0.00
2019,06,09,01,33,0.00
2019,06,09,01,34,0.00
2019,06,09,01,35,0.00
2019,06,09,01,36,0.00
2019,06,09,01,37,0.00
2019,06,09,01,38,0.00
2019,06,09,01,39,0.00
2019,06,09,01,40,0.00
2019,06,09,01,41,0.00
2019,06,09,01,42,0.00
2019,06,09,01,43,0.00
2019,06,09,01,44,0.00
2019,06,09,01,45,0.00
2019,06,09,01,46,0.00
2019,06,09,01,47,0.00
2019,06,09,01,48,0.00
2019,06,09,01,49,0.00
2019,06,09,01,50,0.00
2019,06,09,01,51,0.00
2019,06,09,01,52,0.00
2019,06,09,01,53,0.00
2019,06,09,01,54,0.00
2019,06,09,01,55,0.00
2019,06,09,01,56,0.00
2019,06,09,01,57,0.00
2019,06,09,01,58,0.00
2019,06,09,01,59,0.00
2019,06,09,02,00,0.00
2019,06,09,02,01,0.00
2019,06,09,02,02,0.00
2019,06,09,02,03,0.00
2019,06,09,02,04,0.00
2019,06,09,02,05,0.00
2019,06,09,02,06,0.00
2019,06,09,02,07,0.00
2019,06,09,02,08,0.00
2019,06,09,02,09,0.00
2019,06,09,02,10,0.00
2019,06,09,02,11,0.00
2019,06,09,02,12,0.00
2019,06,09,02,13,0.00
2019,06,09,02,14,0.00
2019,06,09,02,15,0.00
2019,06,09,02,16,0.00
2019,06,09,02,17,0.00
2019,06,09,02,18,0.00
2019,06,09,02,19,0.00
2019,06,09,02,20,0.00
2019,06,09,02,21,0.00
2019,06,09,02,22,0.00
2019,06,09,02,23,0.00
2019,06,09,02,24,0.00
2019,06,09,02,25,0.00
2019,06,09,02,26,0.00
2019,06,09,02,27,0.00
2019,06,09,02,28,0.00
2019,06,09,02,29,0.00
2019,06,09,02,30,0.00
2019,06,09,02,31,0.00
2019,06,09,02,32,0.00
2019,06,09,02,33,0.00
2019,06,09,02,34,0.00
2019,06,09,02,35,0.00
2019,06,09,02,36,0.00
2019,06,09,02,37,0.00
2019,06,09,02,38,0.00
2019,06,09,02,39,0.00
2019,06,09,02,40,0.00
2019,06,09,02,41,0.00
2019,06,09,02,42,0.00
2019,06,09,02,43,0.00
2019,06,09,02,44,0.00
2019,06,09,02,45,0.00
2019,06,09,02,46,0.00
2019,06,09,02,47,0.00
2019,06,09,02,48,0.00
2019,06,09,02,49,0.00
2019,06,09,02,50,0.00
2019,06,09,02,51,0.00
2019,06,09,02,52,0.00
2019,06,09,02,53,0.00
2019,06,09,02,54,0.00
2019,06,09,02,55,0.00
2019,06,09,02,56,0.00
2019,06,09,02,57,0.00
2019,06,09,02,58,0.00
2019,06,09,02,59,0.00
2019,06,09,03,00,0.00
2019,06,09,03,01,0.00
2019,06,09,03,02,0.00
2019,06,09,03,03,0.00
2019,06,09,03,04,0.00
2019,06,09,03,05,0.00
2019,06,09,03,06,0.00
2019,06,09,03,07,0.00
2019,06,09,03,08,0.00
2019,06,09,03,09,0.00
2019,06,09,03,10,0.00
2019,06,09,03,11,0.00
2019,06,09,03,12,0.00
2019,06,09,03,13,0.00
2019,06,09,03,14,0.00
2019,06,09,03,15,0.00
2019,06,09,03,16,0.00
2019,06,09,03,17,0.00
2019,06,09,03,18,0.00
2019,06,09,03,19,0.00
2019,06,09,03,20,0.00
2019,06,09,03,21,0.00
2019,06,09,03,22,0.00
2019,06,09,03,23,0.00
2019,06,09,03,24,0.00
2019,06,09,03,25,0.00
2019,06,09,03,26,0.00
2019,06,09,03,27,0.00
2019,06,09,03,28,0.00
2019,06,09,03,29,0.00
2019,06,09,03,30,0.00
2019,06,09,03,31,0.00
2019,06,09,03,32,0.00
2019,06,09,03,33,0.00
2019,06,09,03,34,0.00
2019,06,09,03,35,0.00
2019,06,09,03,36,0.00
2019,06,09,03,37,0.00
2019,06,09,03,38,0.00
2019,06,09,03,39,0.00
2019,06,09,03,40,0.00
2019,06,09,03,41,0.00
2019,06,09,03,42,0.00
2019,06,09,03,43,0.00
2019,06,09,03,44,0.00
2019,06,09,03,45,0.00
2019,06,09,03,46,0.00
2019,06,09,03,47,0.00
2019,06,09,03,48,0.00
2019,06,09,03,49,0.00
2019,06,09,03,50,0.00
2019,06,09,03,51,0.00
2019,06,09,03,52,0.00
2019,06,09,03,53,0.00
2019,06,09,03,54,0.00
2019,06,09,03,55,0.00
2019,06,09,03,56,0.00
2019,06,09,03,57,0.00
2019,06,09,03,58,0.00
2019,06,09,03,59,0.00
2019,06,09,04,00,0.00
2019,06,09,04,01,0.00
2019,06,09,04,02,0.00
2019,06,09,04,03,0.00
2019,06,09,04,04,0.00
2019,06,09,04,05,0.00
2019,06,09,04,06,0.00
2019,06,09,04,07,0.00
2019,06,09,04,08,0.00
2019,06,09,04,09,0.00
2019,06,09,04,10,0.00
2019,06,09,04,11,0.00
2019,06,09,04,12,0.00
2019,06,09,04,13,0.00
2019,06,09,04,14,0.00
2019,06,09,04,15,0.00
2019,06,09,04,16,0.00
2019,06,09,04,17,0.00
2019,06,09,04,18,0.00
2019,06,09,04,19,0.00
2019,06,09,04,20,0.00
2019,06,09,04,21,0.00
2019,06,09,04,22,0.00
2019,06,09,04,23,0.00
2019,06,09,04,24,0.00
2019,06,09,04,25,0.00
2019,06,09,04,26,0.00
2019,06,09,04,27,0.00
2019,06,09,04,28,0.00
2019,06,09,04,29,0.00
2019,06,09,04,30,0.00
2019,06,09,04,31,0.00
2019,06,09,04,32,0.00
2019,06,09,04,33,0.00
2019,06,09,04,34,0.00
2019,06,09,04,35,0.00
2019,06,09,04,36,0.00
2019,06,09,04,37,0.00
2019,06,09,04,38,0.00
2019,06,09,04,39,0.00
2019,06,09,04,40,0.00
2019,06,09,04,41,0.00
2019,06,09,04,42,0.00
2019,06,09,04,43,0.00
2019,06,09,04,44,0.00
2019,06,09,04,45,0.00
2019,06,09,04,46,0.00
2019,06,09,04,47,0.00
2019,06,09,04,48,0.00
2019,06,09,04,49,0.00
2019,06,09,04,50,0.00
2019,06,09,04,51,0.00
2019,06,09,04,52,0.00
2019,06,09,04,53,0.00
2019,06,09,04,54,0.00
2019,06,09,04,55,0.00
2019,06,09,04,56,0.00
2019,06,09,04,57,0.00
2019,06,09,04,58,0.00
2019,06,09,04,59,0.00
2019,06,09,05,00,0.00
2019,06,09,05,01,0.00
2019,06,09,05,02,0.00
2019,06,09,05,03,0.00
2019,06,09,05,04,0.00
2019,06,09,05,05,0.00
2019,06,09,05,06,0.00
2019,06,09,05,07,0.00
2019,06,09,05,08,0.00
2019,06,09,05,09,0.00
2019,06,09,05,10,0.00
2019,06,09,05,11,0.00
2019,06,09,05,12,0.00
2019,06,09,05,13,0.70
2019,06,09,05,14,5.00
2019,06,09,05,15,5.00
2019,06,09,05,16,5.00
2019,06,09,05,17,6.30
2019,06,09,05,18,7.00
2019,06,09,05,19,7.00
2019,06,09,05,20,7.00
2019,06,09,05,21,7.00
2019,06,09,05,22,7.00
2019,06,09,05,23,7.00
2019,06,09,05,24,7.00
2019,06,09,05,25,7.00
2019,06,09,05,26,7.00
2019,06,09,05,27,7.00
2019,06,09,05,28,7.00
2019,06,09,05,29,7.00
2019,06,09,05,30,7.00
2019,06,09,05,31,8.20
2019,06,09,05,32,9.00
2019,06,09,05,33,9.00
2019,06,09,05,34,9.00
2019,06,09,05,35,9.00
2019,06,09,05,36,9.00
2019,06,09,05,37,10.00
2019,06,09,05,38,11.00
2019,06,09,05,39,11.00
2019,06,09,05,40,11.00
2019,06,09,05,41,11.00
2019,06,09,05,42,11.00
2019,06,09,05,43,11.00
2019,06,09,05,44,11.00
2019,06,09,05,45,11.00
2019,06,09,05,46,11.00
2019,06,09,05,47,11.00
2019,06,09,05,48,11.00
2019,06,09,05,49,11.00
2019,06,09,05,50,11.00
2019,06,09,05,51,11.50
2019,06,09,05,52,12.00
2019,06,09,05,53,12.00
2019,06,09,05,54,12.00
2019,06,09,05,55,12.20
2019,06,09,05,56,14.00
2019,06,09,05,57,14.00
2019,06,09,05,58,15.00
2019,06,09,05,59,16.00
2019,06,09,06,00,16.00
2019,06,09,06,01,16.00
2019,06,09,06,02,18.00
2019,06,09,06,03,18.00
2019,06,09,06,04,18.40
2019,06,09,06,05,19.00
2019,06,09,06,06,19.00
2019,06,09,06,07,19.00
2019,06,09,06,08,20.80
2019,06,09,06,09,21.00
2019,06,09,06,10,21.00
2019,06,09,06,11,21.70
2019,06,09,06,12,23.00
2019,06,09,06,13,23.00
2019,06,09,06,14,23.00
2019,06,09,06,15,23.00
2019,06,09,06,16,23.20
2019,06,09,06,17,25.00
2019,06,09,06,18,25.00
2019,06,09,06,19,25.00
2019,06,09,06,20,25.60
2019,06,09,06,21,26.00
2019,06,09,06,22,26.00
2019,06,09,06,23,26.00
2019,06,09,06,24,26.40
2019,06,09,06,25,28.00
2019,06,09,06,26,28.00
2019,06,09,06,27,28.00
2019,06,09,06,28,28.00
2019,06,09,06,29,28.00
2019,06,09,06,30,28.00
2019,06,09,06,31,28.00
2019,06,09,06,32,28.70
2019,06,09,06,33,30.00
2019,06,09,06,34,30.00
2019,06,09,06,35,30.00
2019,06,09,06,36,30.00
2019,06,09,06,37,31.90
2019,06,09,06,38,32.00
2019,06,09,06,39,32.00
2019,06,09,06,40,32.50
2019,06,09,06,41,33.00
2019,06,09,06,42,33.00
2019,06,09,06,43,33.00
2019,06,09,06,44,33.00
2019,06,09,06,45,32.80
2019,06,09,06,46,32.00
2019,06,09,06,47,32.00
2019,06,09,06,48,32.00
2019,06,09,06,49,32.00
2019,06,09,06,50,32.00
2019,06,09,06,51,32.10
2019,06,09,06,52,33.00
2019,06,09,06,53,33.70
2019,06,09,06,54,35.90
2019,06,09,06,55,37.00
2019,06,09,06,56,38.50
2019,06,09,06,57,39.90
2019,06,09,06,58,42.10
2019,06,09,06,59,44.50
2019,06,09,07,00,46.40
2019,06,09,07,01,48.00
2019,06,09,07,02,50.20
2019,06,09,07,03,52.50
2019,06,09,07,04,53.90
2019,06,09,07,05,58.20
2019,06,09,07,06,60.40
2019,06,09,07,07,62.40
2019,06,09,07,08,64.80
2019,06,09,07,09,68.80
2019,06,09,07,10,73.00
2019,06,09,07,11,74.00
2019,06,09,07,12,81.00
2019,06,09,07,13,83.70
2019,06,09,07,14,86.70
2019,06,09,07,15,89.00
2019,06,09,07,16,90.60
2019,06,09,07,17,92.50
2019,06,09,07,18,94.70
2019,06,09,07,19,97.00
2019,06,09,07,20,98.00
2019,06,09,07,21,98.00
2019,06,09,07,22,99.00
2019,06,09,07,23,101.20
2019,06,09,07,24,102.00
2019,06,09,07,25,103.70
2019,06,09,07,26,104.00
2019,06,09,07,27,103.60
2019,06,09,07,28,102.70
2019,06,09,07,29,104.00
2019,06,09,07,30,104.00
2019,06,09,07,31,104.70
2019,06,09,07,32,105.00
2019,06,09,07,33,107.40
2019,06,09,07,34,111.40
2019,06,09,07,35,114.10
2019,06,09,07,36,117.90
2019,06,09,07,37,121.80
2019,06,09,07,38,126.60
2019,06,09,07,39,128.00
2019,06,09,07,40,134.30
2019,06,09,07,41,137.90
2019,06,09,07,42,141.40
2019,06,09,07,43,144.00
2019,06,09,07,44,146.00
2019,06,09,07,45,147.40
2019,06,09,07,46,148.00
2019,06,09,07,47,146.10
2019,06,09,07,48,145.60
2019,06,09,07,49,144.00
2019,06,09,07,50,143.00
2019,06,09,07,51,141.40
2019,06,09,07,52,138.10
2019,06,09,07,53,135.30
2019,06,09,07,54,134.00
2019,06,09,07,55,134.00
2019,06,09,07,56,133.30
2019,06,09,07,57,132.00
2019,06,09,07,58,132.00
2019,06,09,07,59,133.40
2019,06,09,08,00,134.00
2019,06,09,08,01,135.00
2019,06,09,08,02,135.00
2019,06,09,08,03,135.70
2019,06,09,08,04,137.00
2019,06,09,08,05,137.00
2019,06,09,08,06,137.00
2019,06,09,08,07,138.70
2019,06,09,08,08,139.00
2019,06,09,08,09,139.00
2019,06,09,08,10,139.00
2019,06,09,08,11,139.00
2019,06,09,08,12,139.00
2019,06,09,08,13,139.00
2019,06,09,08,14,140.70
2019,06,09,08,15,142.20
2019,06,09,08,16,145.00
2019,06,09,08,17,148.40
2019,06,09,08,18,151.00
2019,06,09,08,19,156.00
2019,06,09,08,20,160.90
2019,06,09,08,21,166.30
2019,06,09,08,22,171.30
2019,06,09,08,23,174.90
2019,06,09,08,24,179.00
2019,06,09,08,25,182.90
2019,06,09,08,26,185.60
2019,06,09,08,27,187.40
2019,06,09,08,28,189.70
2019,06,09,08,29,190.00
2019,06,09,08,30,190.00
2019,06,09,08,31,190.00
2019,06,09,08,32,190.00
2019,06,09,08,33,190.00
2019,06,09,08,34,190.00
2019,06,09,08,35,190.00
2019,06,09,08,36,190.00
2019,06,09,08,37,190.00
2019,06,09,08,38,190.70
2019,06,09,08,39,192.00
2019,06,09,08,40,196.20
2019,06,09,08,41,204.90
2019,06,09,08,42,214.70
2019,06,09,08,43,217.50
2019,06,09,08,44,210.10
2019,06,09,08,45,198.20
2019,06,09,08,46,196.00
2019,06,09,08,47,198.20
2019,06,09,08,48,202.80
2019,06,09,08,49,212.00
2019,06,09,08,50,224.80
2019,06,09,08,51,227.00
2019,06,09,08,52,221.80
2019,06,09,08,53,212.00
2019,06,09,08,54,222.30
2019,06,09,08,55,234.40
2019,06,09,08,56,216.30
2019,06,09,08,57,206.00
2019,06,09,08,58,206.80
2019,06,09,08,59,208.30
2019,06,09,09,00,201.20
2019,06,09,09,01,190.60
2019,06,09,09,02,189.40
2019,06,09,09,03,191.70
2019,06,09,09,04,202.60
2019,06,09,09,05,207.50
2019,06,09,09,06,207.10
2019,06,09,09,07,205.50
2019,06,09,09,08,210.60
2019,06,09,09,09,218.20
2019,06,09,09,10,232.00
2019,06,09,09,11,249.70
2019,06,09,09,12,267.10
2019,06,09,09,13,283.90
2019,06,09,09,14,275.50
2019,06,09,09,15,292.30
2019,06,09,09,16,344.50
2019,06,09,09,17,377.10
2019,06,09,09,18,359.90
2019,06,09,09,19,358.20
2019,06,09,09,20,379.30
2019,06,09,09,21,345.50
2019,06,09,09,22,317.40
2019,06,09,09,23,318.50
2019,06,09,09,24,315.40
2019,06,09,09,25,305.20
2019,06,09,09,26,293.20
2019,06,09,09,27,270.10
2019,06,09,09,28,257.60
2019,06,09,09,29,263.50
2019,06,09,09,30,274.20
2019,06,09,09,31,278.60
2019,06,09,09,32,287.90
2019,06,09,09,33,310.50
2019,06,09,09,34,315.70
2019,06,09,09,35,336.50
2019,06,09,09,36,376.20
2019,06,09,09,37,400.80
2019,06,09,09,38,409.80
2019,06,09,09,39,465.80
2019,06,09,09,40,404.20
2019,06,09,09,41,387.00
2019,06,09,09,42,337.80
2019,06,09,09,43,279.80
2019,06,09,09,44,292.30
2019,06,09,09,45,340.70
2019,06,09,09,46,417.80
2019,06,09,09,47,399.00
2019,06,09,09,48,413.30
2019,06,09,09,49,453.40
2019,06,09,09,50,477.50
2019,06,09,09,51,493.40
2019,06,09,09,52,492.70
2019,06,09,09,53,512.70
2019,06,09,09,54,469.20
2019,06,09,09,55,437.10
2019,06,09,09,56,401.00
2019,06,09,09,57,371.00
2019,06,09,09,58,429.50
2019,06,09,09,59,364.30
2019,06,09,10,00,366.10
2019,06,09,10,01,420.80
2019,06,09,10,02,430.60
2019,06,09,10,03,420.80
2019,06,09,10,04,388.40
2019,06,09,10,05,365.40
2019,06,09,10,06,409.70
2019,06,09,10,07,409.90
2019,06,09,10,08,401.80
2019,06,09,10,09,415.10
2019,06,09,10,10,424.20
2019,06,09,10,11,390.50
2019,06,09,10,12,359.00
2019,06,09,10,13,398.40
2019,06,09,10,14,365.00
2019,06,09,10,15,349.60
2019,06,09,10,16,356.80
2019,06,09,10,17,368.70
2019,06,09,10,18,373.80
2019,06,09,10,19,396.90
2019,06,09,10,20,401.70
2019,06,09,10,21,385.50
2019,06,09,10,22,374.60
2019,06,09,10,23,377.50
2019,06,09,10,24,361.90
2019,06,09,10,25,345.80
2019,06,09,10,26,337.80
2019,06,09,10,27,348.00
2019,06,09,10,28,321.00
2019,06,09,10,29,310.30
2019,06,09,10,30,297.80
2019,06,09,10,31,290.10
2019,06,09,10,32,280.90
2019,06,09,10,33,271.00
2019,06,09,10,34,264.70
2019,06,09,10,35,260.00
2019,06,09,10,36,259.30
2019,06,09,10,37,256.30
2019,06,09,10,38,256.00
2019,06,09,10,39,257.60
2019,06,09,10,40,261.00
2019,06,09,10,41,269.70
2019,06,09,10,42,271.90
2019,06,09,10,43,288.00
2019,06,09,10,44,336.10
2019,06,09,10,45,374.00
2019,06,09,10,46,452.90
2019,06,09,10,47,560.30
2019,06,09,10,48,556.00
2019,06,09,10,49,557.80
2019,06,09,10,50,606.00
2019,06,09,10,51,606.00
2019,06,09,10,52,639.20
2019,06,09,10,53,624.00
2019,06,09,10,54,542.20
2019,06,09,10,55,526.00
2019,06,09,10,56,742.50
2019,06,09,10,57,795.00
2019,06,09,10,58,795.00
2019,06,09,10,59,638.00
2019,06,09,11,00,495.70
2019,06,09,11,01,513.00
2019,06,09,11,02,513.00
2019,06,09,11,03,415.70
2019,06,09,11,04,393.00
2019,06,09,11,05,388.90
2019,06,09,11,06,431.40
2019,06,09,11,07,449.20
2019,06,09,11,08,450.60
2019,06,09,11,09,472.00
2019,06,09,11,10,459.90
2019,06,09,11,11,515.90
2019,06,09,11,12,568.00
2019,06,09,11,13,667.70
2019,06,09,11,14,717.30
2019,06,09,11,15,680.00
2019,06,09,11,16,680.00
2019,06,09,11,17,665.00
2019,06,09,11,18,528.70
2019,06,09,11,19,490.80
2019,06,09,11,20,500.00
2019,06,09,11,21,491.50
2019,06,09,11,22,475.90
2019,06,09,11,23,498.60
2019,06,09,11,24,508.00
2019,06,09,11,25,553.20
2019,06,09,11,26,530.80
2019,06,09,11,27,469.00
2019,06,09,11,28,458.90
2019,06,09,11,29,465.60
2019,06,09,11,30,452.80
2019,06,09,11,31,514.00
2019,06,09,11,32,450.50
2019,06,09,11,33,448.10
2019,06,09,11,34,433.30
2019,06,09,11,35,423.20
2019,06,09,11,36,425.70
2019,06,09,11,37,470.70
2019,06,09,11,38,514.40
2019,06,09,11,39,469.20
2019,06,09,11,40,443.00
2019,06,09,11,41,440.60
2019,06,09,11,42,445.30
2019,06,09,11,43,443.30
2019,06,09,11,44,465.00
2019,06,09,11,45,470.00
2019,06,09,11,46,470.70
2019,06,09,11,47,435.40
2019,06,09,11,48,407.40
2019,06,09,11,49,384.10
2019,06,09,11,50,370.80
2019,06,09,11,51,367.20
2019,06,09,11,52,377.90
2019,06,09,11,53,382.60
2019,06,09,11,54,389.40
2019,06,09,11,55,392.00
2019,06,09,11,56,390.80
2019,06,09,11,57,387.80
2019,06,09,11,58,381.00
2019,06,09,11,59,372.60
2019,06,09,12,00,356.60
2019,06,09,12,01,345.50
2019,06,09,12,02,339.60
2019,06,09,12,03,336.70
2019,06,09,12,04,334.50
2019,06,09,12,05,334.00
2019,06,09,12,06,338.00
2019,06,09,12,07,340.30
2019,06,09,12,08,346.80
2019,06,09,12,09,351.00
2019,06,09,12,10,350.70
2019,06,09,12,11,348.50
2019,06,09,12,12,346.20
2019,06,09,12,13,342.90
2019,06,09,12,14,340.30
2019,06,09,12,15,339.10
2019,06,09,12,16,343.00
2019,06,09,12,17,345.60
2019,06,09,12,18,346.00
2019,06,09,12,19,349.40
2019,06,09,12,20,353.30
2019,06,09,12,21,357.70
2019,06,09,12,22,361.40
2019,06,09,12,23,365.50
2019,06,09,12,24,371.40
2019,06,09,12,25,379.20
2019,06,09,12,26,382.70
2019,06,09,12,27,388.10
2019,06,09,12,28,399.90
2019,06,09,12,29,410.90
2019,06,09,12,30,428.00
2019,06,09,12,31,438.60
2019,06,09,12,32,471.60
2019,06,09,12,33,510.30
2019,06,09,12,34,578.90
2019,06,09,12,35,610.20
2019,06,09,12,36,591.60
2019,06,09,12,37,591.00
2019,06,09,12,38,635.50
2019,06,09,12,39,639.90
2019,06,09,12,40,672.20
2019,06,09,12,41,734.50
2019,06,09,12,42,796.80
2019,06,09,12,43,775.00
2019,06,09,12,44,795.00
2019,06,09,12,45,808.10
2019,06,09,12,46,807.00
2019,06,09,12,47,654.50
2019,06,09,12,48,575.80
2019,06,09,12,49,661.20
2019,06,09,12,50,698.70
2019,06,09,12,51,699.00
2019,06,09,12,52,651.90
2019,06,09,12,53,625.00
2019,06,09,12,54,621.70
2019,06,09,12,55,648.70
2019,06,09,12,56,622.00
2019,06,09,12,57,572.70
2019,06,09,12,58,473.20
2019,06,09,12,59,447.90
2019,06,09,13,00,440.10
2019,06,09,13,01,442.40
2019,06,09,13,02,452.00
2019,06,09,13,03,448.80
2019,06,09,13,04,443.80
2019,06,09,13,05,438.00
2019,06,09,13,06,419.60
2019,06,09,13,07,437.70
2019,06,09,13,08,457.00
2019,06,09,13,09,501.90
2019,06,09,13,10,486.80
2019,06,09,13,11,489.40
2019,06,09,13,12,485.00
2019,06,09,13,13,515.90
2019,06,09,13,14,534.00
2019,06,09,13,15,675.30
2019,06,09,13,16,632.50
2019,06,09,13,17,593.50
2019,06,09,13,18,566.50
2019,06,09,13,19,519.50
2019,06,09,13,20,488.20
2019,06,09,13,21,405.20
2019,06,09,13,22,410.60
2019,06,09,13,23,506.50
2019,06,09,13,24,537.20
2019,06,09,13,25,534.00
2019,06,09,13,26,552.00
2019,06,09,13,27,624.90
2019,06,09,13,28,710.00
2019,06,09,13,29,698.30
2019,06,09,13,30,644.20
2019,06,09,13,31,696.40
2019,06,09,13,32,681.10
2019,06,09,13,33,604.30
2019,06,09,13,34,562.50
2019,06,09,13,35,573.10
2019,06,09,13,36,660.60
2019,06,09,13,37,654.50
2019,06,09,13,38,589.30
2019,06,09,13,39,561.70
2019,06,09,13,40,554.00
2019,06,09,13,41,615.90
2019,06,09,13,42,596.00
2019,06,09,13,43,549.30
2019,06,09,13,44,509.00
2019,06,09,13,45,436.30
2019,06,09,13,46,414.20
2019,06,09,13,47,421.30
2019,06,09,13,48,416.00
2019,06,09,13,49,423.20
2019,06,09,13,50,444.70
2019,06,09,13,51,498.60
2019,06,09,13,52,522.40
2019,06,09,13,53,572.90
2019,06,09,13,54,600.40
2019,06,09,13,55,577.50
2019,06,09,13,56,520.30
2019,06,09,13,57,507.70
2019,06,09,13,58,579.20
2019,06,09,13,59,569.00
2019,06,09,14,00,548.20
2019,06,09,14,01,535.00
2019,06,09,14,02,525.50
2019,06,09,14,03,508.10
2019,06,09,14,04,475.70
2019,06,09,14,05,474.30
2019,06,09,14,06,463.20
2019,06,09,14,07,444.10
2019,06,09,14,08,447.50
2019,06,09,14,09,469.40
2019,06,09,14,10,490.00
2019,06,09,14,11,500.00
2019,06,09,14,12,519.00
2019,06,09,14,13,508.20
2019,06,09,14,14,453.40
2019,06,09,14,15,404.30
2019,06,09,14,16,385.50
2019,06,09,14,17,371.00
2019,06,09,14,18,356.70
2019,06,09,14,19,345.10
2019,06,09,14,20,335.80
2019,06,09,14,21,326.90
2019,06,09,14,22,322.50
2019,06,09,14,23,322.60
2019,06,09,14,24,315.50
2019,06,09,14,25,306.80
2019,06,09,14,26,296.80
2019,06,09,14,27,290.90
2019,06,09,14,28,284.10
2019,06,09,14,29,277.60
2019,06,09,14,30,276.00
2019,06,09,14,31,277.50
2019,06,09,14,32,282.30
2019,06,09,14,33,287.80
2019,06,09,14,34,287.30
2019,06,09,14,35,283.60
2019,06,09,14,36,279.50
2019,06,09,14,37,276.70
2019,06,09,14,38,274.60
2019,06,09,14,39,275.70
2019,06,09,14,40,279.30
2019,06,09,14,41,283.90
2019,06,09,14,42,287.00
2019,06,09,14,43,286.00
2019,06,09,14,44,282.50
2019,06,09,14,45,278.90
2019,06,09,14,46,276.30
2019,06,09,14,47,271.80
2019,06,09,14,48,267.80
2019,06,09,14,49,261.80
2019,06,09,14,50,255.70
2019,06,09,14,51,251.20
2019,06,09,14,52,250.70
2019,06,09,14,53,256.10
2019,06,09,14,54,266.40
2019,06,09,14,55,280.70
2019,06,09,14,56,293.90
2019,06,09,14,57,305.00
2019,06,09,14,58,312.80
2019,06,09,14,59,317.10
2019,06,09,15,00,319.70
2019,06,09,15,01,323.00
2019,06,09,15,02,322.80
2019,06,09,15,03,319.80
2019,06,09,15,04,313.60
2019,06,09,15,05,309.20
2019,06,09,15,06,303.50
2019,06,09,15,07,301.10
2019,06,09,15,08,298.50
2019,06,09,15,09,293.50
2019,06,09,15,10,291.30
2019,06,09,15,11,290.00
2019,06,09,15,12,292.40
2019,06,09,15,13,296.20
2019,06,09,15,14,300.40
2019,06,09,15,15,301.90
2019,06,09,15,16,301.00
2019,06,09,15,17,298.90
2019,06,09,15,18,291.50
2019,06,09,15,19,284.90
2019,06,09,15,20,279.20
2019,06,09,15,21,272.90
2019,06,09,15,22,266.60
2019,06,09,15,23,261.10
2019,06,09,15,24,257.60
2019,06,09,15,25,257.00
2019,06,09,15,26,257.00
2019,06,09,15,27,255.50
2019,06,09,15,28,253.20
2019,06,09,15,29,253.40
2019,06,09,15,30,258.80
2019,06,09,15,31,267.00
2019,06,09,15,32,278.50
2019,06,09,15,33,290.90
2019,06,09,15,34,302.90
2019,06,09,15,35,310.30
2019,06,09,15,36,319.50
2019,06,09,15,37,340.50
2019,06,09,15,38,360.70
2019,06,09,15,39,368.70
2019,06,09,15,40,394.20
2019,06,09,15,41,440.50
2019,06,09,15,42,472.40
2019,06,09,15,43,537.70
2019,06,09,15,44,540.00
2019,06,09,15,45,627.80
2019,06,09,15,46,771.20
2019,06,09,15,47,742.50
2019,06,09,15,48,781.30
2019,06,09,15,49,800.00
2019,06,09,15,50,768.90
2019,06,09,15,51,520.00
2019,06,09,15,52,513.90
2019,06,09,15,53,503.00
2019,06,09,15,54,469.60
2019,06,09,15,55,448.00
2019,06,09,15,56,576.60
2019,06,09,15,57,594.20
2019,06,09,15,58,550.90
2019,06,09,15,59,514.10
2019,06,09,16,00,564.80
2019,06,09,16,01,657.50
2019,06,09,16,02,742.70
2019,06,09,16,03,804.10
2019,06,09,16,04,819.70
2019,06,09,16,05,814.70
2019,06,09,16,06,761.20
2019,06,09,16,07,749.00
2019,06,09,16,08,725.70
2019,06,09,16,09,692.50
2019,06,09,16,10,703.90
2019,06,09,16,11,645.90
2019,06,09,16,12,646.80
2019,06,09,16,13,622.90
2019,06,09,16,14,567.40
2019,06,09,16,15,574.40
2019,06,09,16,16,559.70
2019,06,09,16,17,551.30
2019,06,09,16,18,586.20
2019,06,09,16,19,639.60
2019,06,09,16,20,666.40
2019,06,09,16,21,715.10
2019,06,09,16,22,675.60
2019,06,09,16,23,614.50
2019,06,09,16,24,605.90
2019,06,09,16,25,540.40
2019,06,09,16,26,550.90
2019,06,09,16,27,596.70
2019,06,09,16,28,586.00
2019,06,09,16,29,571.20
2019,06,09,16,30,560.20
2019,06,09,16,31,560.60
2019,06,09,16,32,555.40
2019,06,09,16,33,551.20
2019,06,09,16,34,580.90
2019,06,09,16,35,570.50
2019,06,09,16,36,552.10
2019,06,09,16,37,520.00
2019,06,09,16,38,508.70
2019,06,09,16,39,463.00
2019,06,09,16,40,461.80
2019,06,09,16,41,460.20
2019,06,09,16,42,467.60
2019,06,09,16,43,467.80
2019,06,09,16,44,480.90
2019,06,09,16,45,479.00
2019,06,09,16,46,476.00
2019,06,09,16,47,460.60
2019,06,09,16,48,462.10
2019,06,09,16,49,450.70
2019,06,09,16,50,441.80
2019,06,09,16,51,415.80
2019,06,09,16,52,387.60
2019,06,09,16,53,369.20
2019,06,09,16,54,374.20
2019,06,09,16,55,391.60
2019,06,09,16,56,371.00
2019,06,09,16,57,420.20
2019,06,09,16,58,507.50
2019,06,09,16,59,524.20
2019,06,09,17,00,534.90
2019,06,09,17,01,550.80
2019,06,09,17,02,540.60
2019,06,09,17,03,561.00
2019,06,09,17,04,583.30
2019,06,09,17,05,584.80
2019,06,09,17,06,584.10
2019,06,09,17,07,575.30
2019,06,09,17,08,575.70